Litchfield, MN

3:41 AM CDT on May 27, 2018 (GMT -0500)
Litchfield Municipal

Weather History for KLJF - April, 2013

Change the Weather History Date:

Thursday, April 11, 2013

  Actual Average Record
Temperature  
Mean Temperature 32 °F -  
Max Temperature 35 °F 54 °F 83 °F (1968)
Min Temperature 28 °F 32 °F 14 °F (1957)
Degree Days  
Heating Degree Days 34    
Moisture  
Dew Point 30 °F    
Average Humidity 93    
Maximum Humidity 100    
Minimum Humidity 70    
Precipitation  
Precipitation 0.00 in - - ()
Sea Level Pressure  
Sea Level Pressure 29.75 in    
Wind  
Wind Speed 15 mph (ENE)    
Max Wind Speed 21 mph    
Max Gust Speed 28 mph    
Visibility 5 miles    
Events Rain , Snow    
Averages and records for this station are not official NWS values.
T = Trace of Precipitation, MM = Missing Value Source: NWS Daily Summary

Daily Weather History Graph

Daily Weather History Graph

Search for Another Location

Airport or City:

Astronomy

Apr. 11, 2013 Rise Set
Actual Time 6:39 AM CDT 7:58 PM CDT
Civil Twilight 6:09 AM CDT 8:29 PM CDT
Nautical Twilight 5:32 AM CDT 9:06 PM CDT
Astronomical Twilight 4:53 AM CDT 9:45 PM CDT
Moon 7:08 AM CDT (4/11) 9:39 PM CDT (4/11)
Length of Visible Light 14h 20m
Length of Day
13h 19m
New Moon, 2% of the Moon is Illuminated
Apr 11
New Moon
Apr 18
First Quarter
Apr 25
Full
May 2
Last Quarter
May 9
New

Hourly Weather History & Observations

Time (CDT) Temp. Windchill Dew Point Humidity Pressure Visibility Wind Dir Wind Speed Gust Speed Precip Events Conditions
12:13 AM 33.8 °F 23.9 °F 30.2 °F 87% 29.89 in 10.0 mi ENE 15.0 mph 24.2 mph N/A   Overcast
12:33 AM 33.8 °F 22.8 °F 28.4 °F 81% 29.87 in 10.0 mi ENE 18.4 mph 26.5 mph N/A   Overcast
12:52 AM 33.8 °F 23.2 °F 28.4 °F 81% 29.87 in 10.0 mi ENE 17.3 mph 27.6 mph N/A   Overcast
1:13 AM 33.8 °F 23.9 °F 28.4 °F 81% 29.87 in 10.0 mi ENE 15.0 mph 23.0 mph N/A   Overcast
1:33 AM 35.6 °F 26.6 °F 26.6 °F 70% 29.87 in 10.0 mi ENE 13.8 mph 19.6 mph N/A   Overcast
1:52 AM 35.6 °F 26.6 °F 26.6 °F 70% 29.86 in 10.0 mi ENE 13.8 mph 19.6 mph N/A Snow Light Snow
2:13 AM 35.6 °F 27.5 °F 26.6 °F 70% 29.85 in 5.0 mi ENE 11.5 mph 19.6 mph N/A Snow Light Snow
2:33 AM 33.8 °F 24.8 °F 26.6 °F 75% 29.83 in 7.0 mi NE 12.7 mph 24.2 mph N/A Snow Light Snow
2:52 AM 33.8 °F 23.9 °F 28.4 °F 81% 29.81 in 5.0 mi NE 15.0 mph - N/A Snow Light Snow
3:13 AM 33.8 °F 23.9 °F 28.4 °F 81% 29.81 in 5.0 mi ENE 15.0 mph 19.6 mph N/A Snow Light Snow
3:33 AM 32.0 °F 23.6 °F 28.4 °F 87% 29.83 in 2.5 mi ENE 10.4 mph - N/A Snow Light Snow
3:52 AM 30.2 °F 20.8 °F 28.4 °F 93% 29.82 in 2.0 mi ENE 11.5 mph 17.3 mph N/A Snow Light Snow
4:13 AM 30.2 °F 21.3 °F 28.4 °F 93% 29.82 in 2.5 mi NE 10.4 mph - N/A Snow Light Snow
4:32 AM 30.2 °F 18.9 °F 28.4 °F 93% 29.81 in 1.8 mi ENE 16.1 mph 21.9 mph N/A Snow Light Snow
4:52 AM 30.2 °F 20.2 °F 28.4 °F 93% 29.81 in 1.2 mi ENE 12.7 mph 19.6 mph N/A Snow Light Snow
5:13 AM 28.4 °F 18.0 °F 28.4 °F 100% 29.81 in 1.0 mi NE 12.7 mph - N/A Snow Light Snow
5:33 AM 28.4 °F 18.0 °F 28.4 °F 100% 29.80 in 0.8 mi NE 12.7 mph - N/A Snow Snow
5:52 AM 28.4 °F 17.5 °F 28.4 °F 100% 29.79 in 0.8 mi NE 13.8 mph - N/A Snow Snow
6:13 AM 28.4 °F 15.8 °F 28.4 °F 100% 29.78 in 0.8 mi ENE 18.4 mph 23.0 mph N/A Snow Snow
6:33 AM 28.4 °F 15.8 °F 28.4 °F 100% 29.77 in 0.2 mi ENE 18.4 mph 25.3 mph N/A Snow Heavy Snow
6:52 AM 28.4 °F 17.0 °F 28.4 °F 100% 29.76 in 0.5 mi ENE 15.0 mph 24.2 mph N/A Snow Snow
7:13 AM 28.4 °F 16.2 °F 28.4 °F 100% 29.75 in 0.2 mi ENE 17.3 mph 25.3 mph N/A Snow Heavy Snow
7:32 AM 28.4 °F 15.4 °F 28.4 °F 100% 29.74 in 0.2 mi ENE 19.6 mph 26.5 mph N/A Snow Heavy Snow
7:53 AM 28.4 °F 16.2 °F 28.4 °F 100% 29.74 in 0.2 mi ENE 17.3 mph 24.2 mph N/A Snow Heavy Snow
8:13 AM 28.4 °F 15.8 °F 28.4 °F 100% 29.74 in 0.2 mi ENE 18.4 mph 24.2 mph N/A Snow Snow
8:32 AM 28.4 °F 15.8 °F 28.4 °F 100% 29.74 in 0.8 mi ENE 18.4 mph 24.2 mph N/A Snow Light Snow
8:53 AM 28.4 °F 16.2 °F 28.4 °F 100% 29.74 in 0.5 mi ENE 17.3 mph 23.0 mph N/A Snow Light Snow
9:13 AM 30.2 °F 18.9 °F 28.4 °F 93% 29.73 in 1.5 mi ENE 16.1 mph 25.3 mph N/A Snow Light Snow
9:32 AM 30.2 °F 18.9 °F 28.4 °F 93% 29.73 in 4.0 mi ENE 16.1 mph 24.2 mph N/A   Overcast
9:53 AM 30.2 °F 18.5 °F 28.4 °F 93% 29.73 in 2.5 mi ENE 17.3 mph 25.3 mph N/A   Overcast
10:13 AM 30.2 °F 18.1 °F 28.4 °F 93% 29.73 in 4.0 mi ENE 18.4 mph 25.3 mph N/A   Overcast
10:32 AM 32.0 °F 19.8 °F 30.2 °F 93% 29.73 in 7.0 mi East 20.7 mph 26.5 mph N/A   Overcast
10:53 AM 33.8 °F 22.5 °F 30.2 °F 87% 29.74 in 5.0 mi East 19.6 mph 23.0 mph N/A   Overcast
11:13 AM 33.8 °F 22.8 °F 30.2 °F 87% 29.73 in 4.0 mi East 18.4 mph 23.0 mph N/A   Overcast
11:32 AM 33.8 °F 23.5 °F 30.2 °F 87% 29.74 in 4.0 mi East 16.1 mph 23.0 mph N/A   Overcast
12:13 PM 33.8 °F 23.5 °F 30.2 °F 87% 29.74 in 10.0 mi East 16.1 mph 25.3 mph N/A   Overcast
12:32 PM 35.6 °F 26.6 °F 30.2 °F 81% 29.73 in 10.0 mi East 13.8 mph 21.9 mph N/A Rain Light Rain
12:53 PM 35.6 °F 25.5 °F 30.2 °F 81% 29.72 in 10.0 mi East 17.3 mph 23.0 mph N/A   Overcast
1:12 PM 35.6 °F 26.6 °F 30.2 °F 81% 29.71 in 10.0 mi ENE 13.8 mph 17.3 mph N/A   Overcast
1:33 PM 35.6 °F 26.2 °F 30.2 °F 81% 29.70 in 10.0 mi ENE 15.0 mph 21.9 mph N/A   Overcast
1:53 PM 35.6 °F 26.2 °F 32.0 °F 87% 29.69 in 7.0 mi ENE 15.0 mph 25.3 mph N/A   Light Drizzle
2:12 PM 35.6 °F 26.2 °F 32.0 °F 87% 29.69 in 5.0 mi ENE 15.0 mph 19.6 mph N/A   Overcast
2:33 PM 35.6 °F 26.6 °F 32.0 °F 87% 29.70 in 4.0 mi ENE 13.8 mph 20.7 mph N/A   Overcast
2:53 PM 35.6 °F 26.6 °F 33.8 °F 93% 29.70 in 2.5 mi ENE 13.8 mph 20.7 mph N/A   Overcast
3:12 PM 33.8 °F 24.8 °F 33.8 °F 100% 29.71 in 2.5 mi ENE 12.7 mph - N/A   Overcast
3:33 PM 33.8 °F 24.8 °F 33.8 °F 100% 29.70 in 2.5 mi ENE 12.7 mph 17.3 mph N/A   Overcast
3:52 PM 33.8 °F 25.3 °F 33.8 °F 100% 29.70 in 2.0 mi ENE 11.5 mph 19.6 mph N/A   Overcast
4:13 PM 33.8 °F 24.3 °F 33.8 °F 100% 29.70 in 3.0 mi ENE 13.8 mph - N/A   Overcast
4:33 PM 33.8 °F 24.3 °F 33.8 °F 100% 29.70 in 4.0 mi NE 13.8 mph - N/A   Overcast
4:52 PM 33.8 °F 23.9 °F 33.8 °F 100% 29.70 in 3.0 mi ENE 15.0 mph 19.6 mph N/A   Overcast
5:13 PM 33.8 °F 23.9 °F 33.8 °F 100% 29.71 in 4.0 mi ENE 15.0 mph 19.6 mph N/A   Light Drizzle
5:33 PM 33.8 °F 25.8 °F 33.8 °F 100% 29.71 in 4.0 mi NE 10.4 mph - N/A   Light Drizzle
5:52 PM 33.8 °F 25.3 °F 33.8 °F 100% 29.71 in 5.0 mi NE 11.5 mph - N/A   Overcast
6:13 PM 33.8 °F 25.3 °F 33.8 °F 100% 29.71 in 3.0 mi NNE 11.5 mph 17.3 mph N/A   Overcast
6:32 PM 33.8 °F 23.9 °F 33.8 °F 100% 29.71 in 5.0 mi NE 15.0 mph 19.6 mph N/A   Overcast
6:53 PM 33.8 °F 25.8 °F 33.8 °F 100% 29.71 in 2.5 mi NNE 10.4 mph - N/A Snow Light Snow
7:13 PM 33.8 °F 25.8 °F 33.8 °F 100% 29.71 in 1.8 mi NE 10.4 mph - N/A Snow Light Snow
7:32 PM 32.0 °F 22.5 °F 32.0 °F 100% 29.70 in 3.0 mi NNE 12.7 mph 17.3 mph N/A Snow Light Snow
7:53 PM 32.0 °F 23.0 °F 32.0 °F 100% 29.70 in 5.0 mi NE 11.5 mph 19.6 mph N/A   Overcast
8:13 PM 32.0 °F 23.6 °F 30.2 °F 93% 29.70 in 7.0 mi NE 10.4 mph 20.7 mph N/A   Overcast
8:32 PM 30.2 °F 20.8 °F 30.2 °F 100% 29.69 in 7.0 mi NE 11.5 mph 20.7 mph N/A   Overcast
8:53 PM 30.2 °F 19.8 °F 30.2 °F 100% 29.70 in 7.0 mi NNE 13.8 mph - N/A   Overcast
9:13 PM 30.2 °F 20.2 °F 30.2 °F 100% 29.71 in 7.0 mi NE 12.7 mph 20.7 mph N/A   Overcast
9:32 PM 30.2 °F 19.8 °F 30.2 °F 100% 29.71 in 10.0 mi NE 13.8 mph - N/A   Overcast
9:53 PM 30.2 °F 19.3 °F 30.2 °F 100% 29.71 in 10.0 mi NE 15.0 mph 19.6 mph N/A   Overcast
10:13 PM 30.2 °F 20.2 °F 28.4 °F 93% 29.71 in 10.0 mi NE 12.7 mph 19.6 mph N/A   Overcast
10:32 PM 30.2 °F 19.8 °F 28.4 °F 93% 29.71 in 7.0 mi NE 13.8 mph 19.6 mph N/A   Overcast
10:53 PM 30.2 °F 19.8 °F 30.2 °F 100% 29.71 in 5.0 mi NE 13.8 mph - N/A   Overcast
11:13 PM 30.2 °F 19.8 °F 28.4 °F 93% 29.72 in 4.0 mi NNE 13.8 mph - N/A Snow Light Snow
11:32 PM 30.2 °F 21.3 °F 28.4 °F 93% 29.72 in 1.2 mi NNE 10.4 mph 16.1 mph N/A Snow Light Snow
11:53 PM 28.4 °F 19.1 °F 28.4 °F 100% 29.72 in 2.5 mi NNE 10.4 mph 16.1 mph N/A Snow Light Snow